Elkins, WV

8:51 AM EST on November 21, 2019 (GMT -0500)
Elkins-Randolph County

Weather History for KEKN - September, 2019

Change the Weather History Date:

Thursday, September 5, 2019

  Actual Average Record
Temperature  
Mean Temperature 68 °F 66 °F  
Max Temperature 80 °F 77 °F 92 °F (1954)
Min Temperature 57 °F 55 °F 37 °F (1997)
Degree Days  
Heating Degree Days 0 2  
Month to date heating degree days 0 8  
Since 1 July heating degree days 7 38  
Cooling Degree Days 4 3  
Month to date cooling degree days 32 15  
Year to date cooling degree days 703 441  
Growing Degree Days 18 (Base 50)    
Moisture  
Dew Point 60 °F    
Average Humidity 83    
Maximum Humidity 97    
Minimum Humidity 58    
Precipitation  
Precipitation 0.00 in 0.12 in 1.65 in (1937)
Month to date precipitation T 0.63  
Year to date precipitation 37.71 33.44  
Snow  
Snow 0.00 in 0.00 in 0.00 in (2017)
Month to date snowfall 0.0 0.0  
Since 1 September snowfall 0.0 0.0  
Snow Depth 0.00 in    
Sea Level Pressure  
Sea Level Pressure 30.06 in    
Wind  
Wind Speed 1 mph ()    
Max Wind Speed 12 mph    
Max Gust Speed 17 mph    
Visibility 5.7 miles    
Events Fog    
T = Trace of Precipitation, MM = Missing Value Source: Averaged Metar Reports

Daily Weather History Graph

Daily Weather History Graph

Search for Another Location

Airport or City:

Astronomy

Sep. 05, 2019 Rise Set
Actual Time 6:51 AM EDT 7:43 PM EDT
Civil Twilight 6:24 AM EDT 8:11 PM EDT
Nautical Twilight 5:52 AM EDT 8:43 PM EDT
Astronomical Twilight 5:19 AM EDT 9:16 PM EDT
Moon 1:52 PM EDT (9/5) No Moon Set
Length of Visible Light 13h 46m
Length of Day
12h 52m
Waxing Crescent, 45% of the Moon is Illuminated
Sep 5
Waxing Crescent
Sep 5
First Quarter
Sep 14
Full
Sep 21
Last Quarter
Sep 28
New

Hourly Weather History & Observations

Time (EDT) Temp. Dew Point Humidity Pressure Visibility Wind Dir Wind Speed Gust Speed Precip Events Conditions
12:51 AM 64.9 °F 62.1 °F 90% 30.05 in 7.0 mi Calm Calm - N/A   Clear
1:51 AM 63.0 °F 60.1 °F 90% 30.06 in 6.0 mi Calm Calm - N/A   Clear
2:25 AM 62.1 °F 59.0 °F 90% 30.09 in 1.8 mi Calm Calm - N/A   Clear
2:37 AM 62.1 °F 59.0 °F 90% 30.10 in 3.0 mi Calm Calm - N/A   Clear
2:51 AM 61.0 °F 57.9 °F 90% 30.06 in 5.0 mi Calm Calm - N/A   Clear
2:56 AM 61.0 °F 57.9 °F 90% 30.10 in 2.5 mi Calm Calm - N/A   Scattered Clouds
3:01 AM 60.8 °F 57.2 °F 88% 30.10 in 1.0 mi Calm Calm - N/A   Mist
3:06 AM 61.0 °F 57.9 °F 90% 30.10 in 0.2 mi Calm Calm - N/A Fog Fog
3:18 AM 60.1 °F 57.9 °F 93% 30.09 in 1.0 mi Calm Calm - N/A   Mist
3:33 AM 60.1 °F 57.0 °F 90% 30.09 in 2.0 mi Calm Calm - N/A   Scattered Clouds
3:40 AM 60.1 °F 57.0 °F 90% 30.09 in 5.0 mi Calm Calm - N/A   Partly Cloudy
3:51 AM 59.0 °F 57.0 °F 93% 30.06 in 4.0 mi Calm Calm - N/A   Partly Cloudy
4:12 AM 57.9 °F 55.9 °F 93% 30.09 in 2.5 mi Calm Calm - N/A   Scattered Clouds
4:18 AM 60.1 °F 57.0 °F 90% 30.09 in 3.0 mi Calm Calm - N/A   Mostly Cloudy
4:37 AM 59.0 °F 55.9 °F 90% 30.08 in 1.8 mi Calm Calm - N/A   Mostly Cloudy
4:43 AM 59.0 °F 57.0 °F 93% 30.08 in 0.8 mi Calm Calm - N/A   Mostly Cloudy
4:51 AM 60.1 °F 57.0 °F 90% 30.05 in 0.5 mi Calm Calm - N/A Fog Fog
4:58 AM 60.1 °F 57.9 °F 93% 30.08 in 2.0 mi Calm Calm - N/A   Overcast
5:06 AM 61.0 °F 57.9 °F 90% 30.08 in 5.0 mi Calm Calm - N/A   Overcast
5:51 AM 60.1 °F 57.9 °F 93% 30.05 in 5.0 mi Calm Calm - N/A   Overcast
6:16 AM 61.0 °F 57.9 °F 90% 30.09 in 1.8 mi Calm Calm - N/A   Overcast
6:28 AM 61.0 °F 57.9 °F 90% 30.09 in 3.0 mi Calm Calm - N/A   Overcast
6:38 AM 61.0 °F 57.9 °F 90% 30.09 in 1.5 mi West 3.5 mph - N/A   Overcast
6:46 AM 60.8 °F 59.0 °F 94% 30.09 in 0.2 mi Calm Calm - N/A Fog Fog
6:47 AM 61.0 °F 59.0 °F 93% 30.06 in 0.2 mi Calm Calm - N/A Fog Fog
7:32 AM 61.0 °F 59.0 °F 93% 30.10 in 0.5 mi Calm Calm - N/A Fog Fog
7:44 AM 62.1 °F 59.0 °F 90% 30.10 in 2.0 mi Calm Calm - N/A   Overcast
7:51 AM 62.1 °F 59.0 °F 90% 30.08 in 1.0 mi Calm Calm - N/A   Overcast
8:04 AM 62.1 °F 59.0 °F 90% 30.10 in 3.0 mi Calm Calm - N/A   Overcast
8:51 AM 62.1 °F 59.0 °F 90% 30.09 in 3.0 mi Calm Calm - N/A   Overcast
9:10 AM 63.0 °F 60.1 °F 90% 30.11 in 2.0 mi Calm Calm - N/A   Overcast
9:21 AM 63.0 °F 60.1 °F 90% 30.11 in 4.0 mi Calm Calm - N/A   Overcast
9:51 AM 66.0 °F 61.0 °F 84% 30.09 in 10.0 mi SE 3.5 mph - N/A   Mostly Cloudy
10:02 AM 68.0 °F 61.0 °F 78% 30.10 in 10.0 mi Calm Calm - N/A   Scattered Clouds
10:51 AM 73.0 °F 61.0 °F 66% 30.06 in 10.0 mi Calm Calm - N/A   Scattered Clouds
11:51 AM 77.0 °F 63.0 °F 62% 30.06 in 10.0 mi Calm Calm - N/A   Mostly Cloudy
12:51 PM 78.1 °F 62.1 °F 58% 30.04 in 10.0 mi Calm Calm - N/A   Mostly Cloudy
1:51 PM 77.0 °F 64.0 °F 64% 30.04 in 10.0 mi NW 6.9 mph - N/A   Overcast
2:51 PM 79.0 °F 64.9 °F 62% 30.03 in 10.0 mi NW 9.2 mph - N/A   Partly Cloudy
3:27 PM 78.1 °F 64.9 °F 64% 30.05 in 10.0 mi NW 8.1 mph - N/A   Mostly Cloudy
3:44 PM 78.1 °F 64.0 °F 62% 30.04 in 10.0 mi Variable 5.8 mph - N/A   Scattered Clouds
3:51 PM 79.0 °F 64.0 °F 60% 30.01 in 10.0 mi NW 5.8 mph - N/A   Partly Cloudy
4:51 PM 78.1 °F 64.9 °F 64% 30.00 in 10.0 mi NNW 5.8 mph - N/A   Scattered Clouds
5:06 PM 79.0 °F 64.9 °F 62% 30.02 in 10.0 mi NNW 8.1 mph 16.1 mph N/A   Mostly Cloudy
5:26 PM 75.9 °F 64.9 °F 69% 30.03 in 10.0 mi NW 6.9 mph - N/A   Overcast
5:51 PM 75.0 °F 64.0 °F 69% 30.02 in 10.0 mi NW 8.1 mph - N/A   Partly Cloudy
6:51 PM 73.0 °F 64.0 °F 73% 30.02 in 10.0 mi NNW 4.6 mph - N/A   Mostly Cloudy
7:36 PM 72.0 °F 63.0 °F 73% 30.05 in 10.0 mi NW 4.6 mph - N/A   Mostly Cloudy
7:47 PM 71.6 °F 62.6 °F 73% 30.04 in 10.0 mi NNW 5.8 mph - N/A   Mostly Cloudy
7:51 PM 71.1 °F 63.0 °F 75% 30.02 in 10.0 mi NNW 5.8 mph - N/A   Mostly Cloudy
8:48 PM 69.8 °F 62.6 °F 78% 30.05 in 10.0 mi NNW 6.9 mph - N/A   Overcast
8:51 PM 70.0 °F 62.1 °F 76% 30.03 in 10.0 mi NNW 4.6 mph - N/A   Overcast
9:51 PM 68.0 °F 62.1 °F 81% 30.03 in 10.0 mi WNW 3.5 mph - N/A   Mostly Cloudy
10:21 PM 66.0 °F 61.0 °F 84% 30.04 in 10.0 mi SSE 3.5 mph - N/A   Scattered Clouds
10:51 PM 64.9 °F 61.0 °F 87% 30.00 in 10.0 mi Calm Calm - N/A   Clear
11:51 PM 64.0 °F 61.0 °F 90% 29.99 in 8.0 mi Calm Calm - N/A   Clear